This is the latest recevied weather packets stored in our database for station/object N4QEP-13. If no packets are shown the sender has not sent any weather packets the latest 1 day(s).
| Time | Temp. | Humidity | Pressure | Rain* | Wind** | Luminosity | Snow |
|---|---|---|---|---|---|---|---|
| 1777973410 | 10.56° C | 76% | 1015 hPa | 0 mm | 0 m/s | - | - |
| 1777972508 | 11.11° C | 76% | 1014.8 hPa | 0 mm | 0 m/s | - | - |
| 1777971606 | 11.11° C | 76% | 1014.8 hPa | 0 mm | 0 m/s | - | - |
| 1777970737 | 11.11° C | 76% | 1014.5 hPa | 0 mm | 0 m/s | - | - |
| 1777969835 | 11.11° C | 76% | 1014.4 hPa | 0 mm | 0 m/s | - | - |
| 1777968902 | 11.11° C | 76% | 1014.4 hPa | 0 mm | 0 m/s | - | - |
| 1777968001 | 11.67° C | 76% | 1014.5 hPa | 0 mm | 0 m/s | - | - |
| 1777967157 | 11.67° C | 76% | 1014.6 hPa | 0 mm | 0 m/s | - | - |
| 1777966258 | 11.67° C | 74% | 1014.4 hPa | 0 mm | 0 m/s | - | - |
| 1777965355 | 11.67° C | 73% | 1014.7 hPa | 0 mm | 0 m/s | - | - |
| 1777964453 | 12.22° C | 72% | 1015 hPa | 0 mm | 0 m/s | - | - |
| 1777963543 | 12.22° C | 72% | 1015.2 hPa | 0 mm | 0 m/s | - | - |
| 1777962649 | 12.22° C | 72% | 1015.4 hPa | 0 mm | 0 m/s | - | - |
| 1777961742 | 12.22° C | 73% | 1015.5 hPa | 0 mm | 0 m/s | - | - |
| 1777960839 | 12.22° C | 73% | 1015.7 hPa | 0 mm | 0 m/s | - | - |
| 1777959944 | 12.78° C | 73% | 1016 hPa | 0 mm | 0 m/s | - | - |
| 1777959040 | 12.22° C | 69% | 1016 hPa | 0 mm | 0 m/s | - | - |
| 1777958140 | 12.22° C | 67% | 1015.7 hPa | 0 mm | 0 m/s | - | - |
| 1777957231 | 12.78° C | 68% | 1015.7 hPa | 0 mm | 0 m/s | - | - |
| 1777956359 | 13.33° C | 67% | 1016 hPa | 0 mm | 0 m/s | - | - |
| 1777955468 | 13.33° C | 67% | 1016.1 hPa | 0 mm | 0 m/s | - | - |
* Rain latest hour (hover to see other rain measurements)
** Current wind speed in m/s (hover to see current wind gust speed)